FW1843 Weather Reports


time (UTC)temp
F
wind
direction
speed
knots
gust
knots
rain 1hr
in
rain 24hr
in
rain mn
in
humidity
%
barometer
mb
20260504220017 48 348 2.6 7.0 0.00 0.00 0.00 56 1014.8
20260504214515 48 360 3.5 5.2 0.00 0.00 0.00 56 1014.7
20260504213031 48 360 3.5 5.2 0.00 0.00 0.00 57 1014.6
20260504211527 48 340 2.6 5.2 0.00 0.00 0.00 58 1014.7
20260504210022 48 340 4.3 7.8 0.00 0.00 0.00 56 1014.7
20260504204521 48 340 5.2 10.4 0.00 0.00 0.00 56 1014.6
20260504203021 48 360 7.0 13.9 0.00 0.00 0.00 55 1014.6
20260504201523 48 313 7.8 12.2 0.00 0.00 0.00 56 1014.5
20260504201519 48 360 7.8 12.2 0.00 0.00 0.00 56 1014.5
20260504200019 48 360 7.0 12.2 0.00 0.00 0.00 55 1014.5
20260504194521 48 323 5.2 8.7 0.00 0.00 0.00 56 1014.5
20260504193018 48 360 7.8 12.2 0.00 0.00 0.00 54 1014.4
20260504191514 48 360 2.6 7.8 0.00 0.00 0.00 55 1014.6
20260504190018 48 360 1.7 5.2 0.00 0.00 0.00 55 1014.6
20260504184526 48 320 2.6 8.7 0.00 0.00 0.00 56 1014.5
20260504183011 48 360 3.5 9.6 0.00 0.00 0.00 56 1014.7
20260504181511 48 360 2.6 7.0 0.00 0.00 0.00 56 1014.5
20260504180008 47 360 3.5 7.0 0.00 0.00 0.00 58 1014.6
20260504174507 47 360 2.6 7.0 0.00 0.00 0.00 59 1014.5
20260504173012 46 157 0.9 7.8 0.00 0.00 0.00 60 1014.4
20260504171505 45 360 2.6 7.0 0.00 0.00 0.00 62 1014.4
20260504081525 46 360 20.9 28.7 0.00 0.00 0.00 49 1011.5
20260504060108 52 360 13.0 15.6 0.00 0.00 0.00 42 1008.2
20260504044532 56 360 2.6 7.8 0.00 0.00 0.00 34 1007.1
20260504043025 57 360 2.6 7.0 0.00 0.00 0.00 35 1007.0
20260504041524 60 360 3.5 4.3 0.00 0.00 0.00 27 1007.0
20260504040026 60 360 0.0 1.7 0.00 0.00 0.00 27 1006.9
20260504034522 60 94 0.0 2.6 0.00 0.00 0.00 27 1006.8
20260504033021 60 360 0.0 2.6 0.00 0.00 0.00 27 1006.6
20260504031521 62 67 0.9 3.5 0.00 0.00 0.00 25 1006.5
20260504030020 63 360 0.0 1.7 0.00 0.00 0.00 24 1006.4
20260504024519 64 360 0.9 4.3 0.00 0.00 0.00 23 1006.3
20260504023017 65 360 0.9 4.3 0.00 0.00 0.00 24 1006.2
20260504021519 66 360 1.7 6.1 0.00 0.00 0.00 23 1006.3
20260504020016 66 360 0.9 3.5 0.00 0.00 0.00 26 1006.3
20260504014510 67 360 0.9 3.5 0.00 0.00 0.00 26 1006.4
20260504013014 67 55 0.9 7.0 0.00 0.00 0.00 23 1006.4
20260504011508 68 360 7.8 11.3 0.00 0.00 0.00 21 1006.5
20260504010008 69 360 8.7 11.3 0.00 0.00 0.00 18 1006.5
20260504004505 71 360 5.2 9.6 0.00 0.00 0.00 18 1006.7
20260504003001 71 360 7.0 13.9 0.00 0.00 0.00 18 1006.8
20260504001559 71 360 10.4 13.0 0.00 0.00 0.00 18 1006.8
20260504000137 71 291 13.0 16.5 0.00 0.00 0.00 19 1006.9
20260503234557 71 360 7.8 15.6 0.00 0.00 0.00 20 1006.9
20260503233054 71 360 9.6 14.8 0.00 0.00 0.00 21 1007.0
20260503231554 71 360 7.0 15.6 0.00 0.00 0.00 19 1007.1
20260503230055 71 360 9.6 13.9 0.00 0.00 0.00 21 1007.3
20260503224549 71 360 9.6 13.9 0.00 0.00 0.00 21 1007.8
20260503223047 71 360 4.3 12.2 0.00 0.00 0.00 26 1007.9
20260503221545 70 300 7.8 11.3 0.00 0.00 0.00 27 1008.2